Location: Lango�lan
(48.1202°N, 3.2340°W)
Time: 01:00:43
(UTC+00:00)

SL-14 R/B - Pass Details

Date: 23 October 2019
Orbit: 518 x 554 km, 82.4° (Epoch: 22 November)

Event Time Altitude Azimuth Distance (km) Brightness Sun altitude
Rises 05:26:46 0° 175° (S) 2,674 6.9 -13.5°
Reaches altitude 10° 05:28:58 10° 170° (S) 1,782 6.1 -13.1°
Maximum altitude 05:32:45 49° 95° (E) 687 4.3 -12.5°
Drops below altitude 10° 05:36:31 10° 20° (NNE) 1,778 6.1 -11.9°
Sets 05:38:42 0° 15° (NNE) 2,668 7.0 -11.5°
